Weather History for KIWD - October, 2013

Change the Weather History Date:

Wednesday, October 23, 2013

  Actual Average Record
Temperature  
Mean Temperature 32 °F -  
Max Temperature 35 °F 48 °F 69 °F (1998)
Min Temperature 28 °F 34 °F 21 °F (1997)
Degree Days  
Heating Degree Days 34    
Moisture  
Dew Point 24 °F    
Average Humidity 74    
Maximum Humidity 93    
Minimum Humidity 56    
Precipitation  
Precipitation 0.02 in - - ()
Sea Level Pressure  
Sea Level Pressure 29.90 in    
Wind  
Wind Speed 7 mph (West)    
Max Wind Speed 15 mph    
Max Gust Speed 21 mph    
Visibility 8 miles    
Events      
Averages and records for this station are not official NWS values.
T = Trace of Precipitation, MM = Missing Value Source: NWS Daily Summary

Daily Weather History Graph

Daily Weather History Graph

Search for Another Location

Airport or City:

Trip Planner

Search our weather history database for the weather conditions in past years. The results will help you decide how hot, cold, wet, or windy it might be!

Date:

Astronomy

Oct. 23, 2013 Rise Set
Actual Time 7:29 AM CDT 5:59 PM CDT
Civil Twilight 6:58 AM CDT 6:30 PM CDT
Nautical Twilight 6:23 AM CDT 7:05 PM CDT
Astronomical Twilight 5:48 AM CDT 7:40 PM CDT
Moon 9:21 PM CDT (10/23) 11:55 AM CDT (10/23)
Length of Visible Light 11h 31m
Length of Day
10h 29m
Waning Gibbous, 79% of the Moon is Illuminated
Oct 23
Waning Gibbous
Oct 26
Last Quarter
Nov 3
New
Nov 9
First Quarter
Nov 17
Full

Hourly Weather History & Observations

Time (CDT) Temp. Windchill Dew Point Humidity Pressure Visibility Wind Dir Wind Speed Gust Speed Precip Events Conditions
12:15 AM 30.2 °F - 26.6 °F 86% 29.91 in 4.0 mi Calm Calm - N/A   Mostly Cloudy
12:35 AM 30.2 °F 24.3 °F 26.6 °F 86% 29.90 in 10.0 mi SSW 5.8 mph - N/A   Overcast
12:55 AM 32.0 °F 24.8 °F 26.6 °F 80% 29.90 in 10.0 mi SW 8.1 mph - N/A   Overcast
1:15 AM 32.0 °F 24.2 °F 24.8 °F 75% 29.90 in 10.0 mi WSW 9.2 mph - N/A   Overcast
1:35 AM 30.2 °F 21.9 °F 24.8 °F 80% 29.89 in 10.0 mi West 9.2 mph - N/A   Overcast
1:55 AM 30.2 °F 22.6 °F 24.8 °F 80% 29.89 in 10.0 mi WSW 8.1 mph - N/A   Overcast
2:15 AM 30.2 °F 22.6 °F 24.8 °F 80% 29.89 in 10.0 mi West 8.1 mph - N/A   Overcast
2:35 AM 30.2 °F 23.4 °F 24.8 °F 80% 29.90 in 2.0 mi NNW 6.9 mph - N/A   Overcast
2:55 AM 30.2 °F - 26.6 °F 86% 29.89 in 3.0 mi Calm Calm - N/A   Overcast
3:15 AM 30.2 °F 24.3 °F 26.6 °F 86% 29.88 in 10.0 mi WSW 5.8 mph - N/A   Overcast
3:35 AM 30.2 °F 21.9 °F 24.8 °F 80% 29.87 in 10.0 mi WSW 9.2 mph - N/A   Overcast
3:55 AM 30.2 °F 19.3 °F 23.0 °F 75% 29.86 in 10.0 mi West 15.0 mph - N/A   Mostly Cloudy
4:15 AM 30.2 °F 21.3 °F 21.2 °F 69% 29.87 in 10.0 mi West 10.4 mph - N/A   Partly Cloudy
4:35 AM 28.4 °F 20.4 °F 21.2 °F 74% 29.87 in 10.0 mi WSW 8.1 mph - N/A   Scattered Clouds
4:55 AM 28.4 °F 18.5 °F 21.2 °F 74% 29.87 in 10.0 mi West 11.5 mph - N/A   Scattered Clouds
5:15 AM 30.2 °F 21.3 °F 21.2 °F 69% 29.87 in 10.0 mi WSW 10.4 mph - N/A   Mostly Cloudy
5:35 AM 30.2 °F 21.9 °F 21.2 °F 69% 29.86 in 10.0 mi WSW 9.2 mph - N/A   Overcast
5:55 AM 30.2 °F 20.8 °F 21.2 °F 69% 29.86 in 10.0 mi West 11.5 mph - N/A   Overcast
6:15 AM 30.2 °F 21.3 °F 23.0 °F 75% 29.86 in 10.0 mi West 10.4 mph - N/A   Overcast
6:35 AM 30.2 °F 20.2 °F 23.0 °F 75% 29.86 in 10.0 mi WSW 12.7 mph - N/A   Overcast
6:55 AM 30.2 °F 20.2 °F 24.8 °F 80% 29.86 in 10.0 mi WSW 12.7 mph - N/A   Overcast
7:15 AM 30.2 °F 20.8 °F 24.8 °F 80% 29.87 in 10.0 mi West 11.5 mph - N/A   Overcast
7:35 AM 30.2 °F 20.8 °F 24.8 °F 80% 29.87 in 10.0 mi West 11.5 mph - N/A   Overcast
7:55 AM 30.2 °F 25.4 °F 24.8 °F 80% 29.88 in 10.0 mi NNE 4.6 mph - N/A   Overcast
8:15 AM 30.2 °F 26.7 °F 24.8 °F 80% 29.88 in 0.5 mi West 3.5 mph - N/A   Overcast
8:35 AM 30.2 °F 24.3 °F 24.8 °F 80% 29.88 in 0.2 mi WSW 5.8 mph - N/A   Overcast
8:55 AM 30.2 °F 21.3 °F 26.6 °F 86% 29.88 in 5.0 mi WSW 10.4 mph - N/A   Overcast
9:15 AM 30.2 °F 22.6 °F 24.8 °F 80% 29.88 in 7.0 mi West 8.1 mph - N/A   Overcast
9:35 AM 30.2 °F 23.4 °F 26.6 °F 86% 29.89 in 0.2 mi West 6.9 mph - N/A   Overcast
9:55 AM 30.2 °F 23.4 °F 26.6 °F 86% 29.89 in 0.8 mi West 6.9 mph - N/A   Overcast
10:15 AM 30.2 °F 23.4 °F 26.6 °F 86% 29.89 in 1.0 mi WSW 6.9 mph - N/A   Overcast
10:35 AM 30.2 °F 24.3 °F 26.6 °F 86% 29.90 in 0.8 mi West 5.8 mph - N/A   Overcast
10:55 AM 32.0 °F 27.5 °F 26.6 °F 80% 29.89 in 10.0 mi West 4.6 mph - N/A   Mostly Cloudy
11:15 AM 32.0 °F 26.4 °F 26.6 °F 80% 29.90 in 10.0 mi WSW 5.8 mph - N/A   Overcast
11:35 AM 33.8 °F 27.7 °F 26.6 °F 75% 29.90 in 10.0 mi West 6.9 mph - N/A   Mostly Cloudy
11:55 AM 33.8 °F - 26.6 °F 75% 29.90 in 10.0 mi Calm Calm - N/A   Mostly Cloudy
12:15 PM 32.0 °F 21.6 °F 26.6 °F 80% 29.90 in 1.0 mi West 15.0 mph 20.7 mph N/A   Overcast
12:35 PM 30.2 °F 23.4 °F 24.8 °F 80% 29.90 in 1.0 mi WNW 6.9 mph 20.7 mph N/A   Overcast
12:55 PM 32.0 °F - 26.6 °F 80% 29.90 in 7.0 mi Calm Calm - N/A   Mostly Cloudy
1:15 PM 32.0 °F 28.7 °F 26.6 °F 80% 29.90 in 10.0 mi WSW 3.5 mph - N/A   Overcast
1:35 PM 33.8 °F 27.7 °F 24.8 °F 70% 29.89 in 10.0 mi WNW 6.9 mph - N/A   Overcast
1:55 PM 33.8 °F 27.0 °F 23.0 °F 65% 29.89 in 10.0 mi West 8.1 mph - N/A   Overcast
2:15 PM 33.8 °F 27.7 °F 23.0 °F 65% 29.89 in 10.0 mi West 6.9 mph - N/A   Overcast
2:35 PM 33.8 °F 27.7 °F 23.0 °F 65% 29.89 in 10.0 mi WNW 6.9 mph - N/A   Overcast
2:55 PM 35.6 °F 28.0 °F 23.0 °F 60% 29.89 in 10.0 mi West 10.4 mph 16.1 mph N/A   Overcast
3:15 PM 35.6 °F 28.0 °F 21.2 °F 56% 29.89 in 10.0 mi West 10.4 mph - N/A   Overcast
3:35 PM 33.8 °F 24.8 °F 21.2 °F 60% 29.90 in 10.0 mi West 12.7 mph - N/A   Overcast
3:55 PM 33.8 °F 25.3 °F 21.2 °F 60% 29.90 in 10.0 mi West 11.5 mph - 0.01 in   Overcast
4:15 PM 33.8 °F 26.4 °F 21.2 °F 60% 29.90 in 10.0 mi West 9.2 mph - N/A   Overcast
4:35 PM 33.8 °F 25.8 °F 19.4 °F 56% 29.91 in 10.0 mi West 10.4 mph - N/A   Overcast
4:55 PM 33.8 °F 25.8 °F 21.2 °F 60% 29.91 in 10.0 mi West 10.4 mph - N/A   Overcast
5:15 PM 33.8 °F 25.3 °F 21.2 °F 60% 29.91 in 10.0 mi West 11.5 mph - 0.01 in   Overcast
5:35 PM 33.8 °F 25.8 °F 21.2 °F 60% 29.91 in 10.0 mi WSW 10.4 mph - 0.01 in   Overcast
5:55 PM 33.8 °F 25.8 °F 23.0 °F 65% 29.92 in 10.0 mi West 10.4 mph - 0.01 in   Overcast
6:15 PM 33.8 °F 27.0 °F 23.0 °F 65% 29.92 in 10.0 mi West 8.1 mph - N/A   Overcast
6:35 PM 33.8 °F 27.0 °F 23.0 °F 65% 29.92 in 10.0 mi West 8.1 mph - N/A   Overcast
6:55 PM 32.0 °F 24.8 °F 24.8 °F 75% 29.92 in 10.0 mi West 8.1 mph - N/A   Overcast
7:15 PM 33.8 °F 27.7 °F 23.0 °F 65% 29.93 in 10.0 mi West 6.9 mph - N/A   Overcast
7:35 PM 33.8 °F 25.8 °F 26.6 °F 75% 29.93 in 10.0 mi WNW 10.4 mph 18.4 mph N/A   Overcast
7:55 PM 33.8 °F 24.8 °F 24.8 °F 70% 29.94 in 10.0 mi NW 12.7 mph 18.4 mph N/A   Overcast
8:15 PM 33.8 °F 25.8 °F 23.0 °F 65% 29.94 in 10.0 mi NW 10.4 mph 17.3 mph N/A   Overcast
8:35 PM 33.8 °F 28.6 °F 23.0 °F 65% 29.94 in 10.0 mi WNW 5.8 mph - N/A   Overcast
8:55 PM 33.8 °F 26.4 °F 23.0 °F 65% 29.94 in 10.0 mi WNW 9.2 mph - N/A   Overcast
9:15 PM 33.8 °F 25.8 °F 24.8 °F 70% 29.94 in 10.0 mi WNW 10.4 mph - N/A   Mostly Cloudy
9:35 PM 32.0 °F 25.6 °F 24.8 °F 75% 29.94 in 4.0 mi NW 6.9 mph - N/A   Overcast
9:55 PM 32.0 °F 26.4 °F 26.6 °F 80% 29.94 in 8.0 mi NNW 5.8 mph - N/A   Overcast
10:15 PM 32.0 °F 23.6 °F 26.6 °F 80% 29.94 in 10.0 mi NW 10.4 mph - N/A   Overcast
10:35 PM 33.8 °F 26.4 °F 24.8 °F 70% 29.94 in 10.0 mi NNW 9.2 mph - N/A   Overcast
10:55 PM 32.0 °F 27.5 °F 24.8 °F 75% 29.94 in 10.0 mi West 4.6 mph - N/A   Overcast
11:15 PM 30.2 °F 22.6 °F 24.8 °F 80% 29.94 in 2.5 mi West 8.1 mph - N/A   Overcast
11:35 PM 30.2 °F 23.4 °F 26.6 °F 86% 29.94 in 2.0 mi West 6.9 mph - N/A   Overcast
11:55 PM 30.2 °F 25.4 °F 28.4 °F 93% 29.94 in 1.2 mi WNW 4.6 mph - N/A   Overcast